Flag Weather past 2 weeks in Wegberg, North Rhine-Westphalia, Germany

Now
50 °F

Passing clouds.


Feels Like: 46 °F
Forecast: 39 / 51 °F
Wind: 9 mph from Southeast

Location: Monchengladbach Airport

Current Time: Nov 23, 2014 at 9:15:54 PM

Latest Report: Nov 23, 2014 at 7:50 PM


Visibility: N/A

Pressure: 29.98 "Hg

Humidity: 82%

Dew point: 45 °F

Location of WegbergLocation

Historic Weather in Wegberg — Graph

°F

Wegberg temperature yesterday

Maximum temperature yesterday: 52 °F (at 2:20 PM)
Minimum temperature yesterday: 41 °F (at 7:50 AM)
Average temperature yesterday: 47 °F

Past Weeks' High & Low Weather Summary

 TemperatureHumidityPressure
High57 °F (Nov 10, 2:20 PM)100% (Nov 10, 7:50 AM)30.33 "Hg (Nov 10, 7:50 AM)
Low34 °F (Nov 20, 7:50 AM)62% (Nov 21, 2:20 PM)29.50 "Hg (Nov 16, 4:50 PM)
Average49 °F87%29.85 "Hg
* Reported Nov 8 7:20 PM — Nov 23 7:50 PM, Wegberg, Weather by CustomWeather, © 2014

Note: Actual official high and low records may vary slightly from our data, if they occured in-between our weather recording intervals... More about our weather records

Advertising

Wegberg weather history for previous 24 hours

 ConditionsComfort  
Time TempWeatherWind HumidityBarometerVisibility
7:50 PM
Nov 23
50 °FPassing clouds.9 mph82%29.98 "HgN/A
7:20 PM52 °FPassing clouds.9 mph82%29.98 "HgN/A
6:50 PM52 °FPassing clouds.9 mph82%29.98 "HgN/A
6:20 PM52 °FPassing clouds.8 mph82%29.98 "HgN/A
5:50 PM52 °FPassing clouds.9 mph82%29.98 "HgN/A
5:20 PM54 °FPassing clouds.9 mph77%29.98 "HgN/A
4:50 PM54 °FPassing clouds.8 mph77%29.98 "HgN/A
4:20 PM54 °FPassing clouds.9 mph77%29.98 "HgN/A
3:50 PM54 °FPassing clouds.9 mph77%29.98 "HgN/A
3:20 PM54 °FPassing clouds.9 mph77%30.01 "HgN/A
2:50 PM54 °FPassing clouds.8 mph77%30.01 "HgN/A
2:20 PM54 °FPassing clouds.8 mph77%30.01 "HgN/A
1:50 PM54 °FPassing clouds.8 mph77%30.01 "HgN/A
1:20 PM54 °FPassing clouds.9 mph77%30.04 "HgN/A
12:50 PM54 °FPassing clouds.8 mph77%30.04 "HgN/A
12:20 PM52 °FPassing clouds.9 mph82%30.04 "HgN/A
11:50 AM52 °FPassing clouds.8 mph82%30.07 "HgN/A
11:20 AM50 °FPassing clouds.7 mph82%30.07 "HgN/A
10:50 AM50 °FPassing clouds.8 mph82%30.07 "HgN/A
10:20 AM48 °FPassing clouds.7 mph87%30.07 "HgN/A
9:50 AM48 °FPassing clouds.6 mph82%30.07 "HgN/A
9:20 AM48 °FPassing clouds.9 mph82%30.07 "HgN/A
8:50 AM46 °FPassing clouds.8 mph87%30.07 "HgN/A
8:20 AM46 °FPassing clouds.7 mph87%30.07 "HgN/A
7:50 AM46 °FPassing clouds.7 mph93%30.07 "HgN/A
Weather by CustomWeather, © 2014

See weather overviewHow to use our weather pages